Regional Weather Roundup
Issued by NWS Little Rock, AR

Home | Current Version | Previous Version | Graphics & Text | Print | Product List | Glossary On
Versions: 1 2 3 4 5 6 7 8 9 10 11 12 13 14 15 16 17 18 19 20 21 22 23 24 25 26 27 28 29 30 31 32 33 34 35 36 37 38 39 40 41 42 43 44 45 46 47 48 49 50
868
ASUS44 KLZK 111405
RWRLZK

WEATHER ROUNDUP FOR ARKANSAS
NATIONAL WEATHER SERVICE LITTLE ROCK AR
800 AM CST THU FEB 11 2016

NOTE: "FAIR" INDICATES FEW OR NO CLOUDS BELOW 12,000 FEET WITH NO
SIGNIFICANT WEATHER AND/OR OBSTRUCTIONS TO VISIBILITY.

ARZ001-003-010-029-111500-
NORTHWEST ARKANSAS

CITY           SKY/WX    TMP DP  RH WIND       PRES   REMARKS
FAYETTEVILLE   CLOUDY    33  25  72 NE7       30.11R WCI  27
FORT SMITH     CLOUDY    35  28  75 NE3       30.10R
HARRISON       CLOUDY    27  19  72 NE5       30.16R WCI  22
BENTONVILLE    CLOUDY   N/A N/A N/A NE9       30.13R
ROGERS         PTCLDY    30  23  75 E7        30.14R WCI  23
SILOAM SPGS    CLOUDY    34  19  55 NE7       30.13R WCI  28
HIGHFILL       PTCLDY    32  24  72 NE9       30.12R WCI  24
SPRINGDALE     CLEAR     32  23  69 NE12      30.13R WCI  23
$$

ARZ004-005-016-111500-
NORTH CENTRAL ARKANSAS

CITY           SKY/WX    TMP DP  RH WIND       PRES   REMARKS
BATESVILLE     PTSUNNY   28  14  54 N6        30.20R WCI  22
FLIPPIN        MOCLDY    27  10  50 NE6       30.18R WCI  20
MTN HOME       CLOUDY    24  14  65 NE7       30.19R WCI  16
$$

ARZ040-041-111500-
WEST CENTRAL ARKANSAS

CITY           SKY/WX    TMP DP  RH WIND       PRES   REMARKS
MENA           CLEAR     41  36  81 CALM      30.06R
MOUNT IDA      CLEAR     33  29  85 CALM      30.04R
$$

ARZ009-017-025-026-028-111500-
NORTHEAST ARKANSAS

CITY           SKY/WX    TMP DP  RH WIND       PRES   REMARKS
CORNING        FAIR      27  19  74 NE12G18   30.23  WCI  16
JONESBORO      MOSUNNY   28  19  69 NE13      30.18R WCI  17
NEWPORT        MOSUNNY   28  20  72 N16       30.19R WCI  16
WALNUT RIDGE   CLOUDY    27  18  69 NE15      30.21R VSB 1   WCI  15
BLYTHEVILLE    CLOUDY    30  20  66 NE10      30.20R WCI  21
NW BLYTHEVILLE PTSUNNY   28  21  74 NE9       30.20  WCI  20
$$

ARZ022-023-033-042-044-111500-
CENTRAL ARKANSAS

CITY           SKY/WX    TMP DP  RH WIND       PRES   REMARKS
LITTLE ROCK    CLOUDY    34  25  69 N9        30.12R WCI  27
N LITTLE ROCK  PTSUNNY   33  25  74 NE8       30.12R WCI  26
JACKSONVILLE   MOSUNNY   33  22  64 NE9       30.12R WCI  25
SEARCY         MOSUNNY   30  19  64 NE17      30.17R WCI  18
HOT SPRINGS    SUNNY     37  31  78 CALM      30.07R
RUSSELLVILLE   CLOUDY    30  26  85 CALM      30.11R
CLINTON        FAIR      32  23  69 CALM      30.16R
$$

ARZ036-111500-
EAST ARKANSAS

CITY           SKY/WX    TMP DP  RH WIND       PRES   REMARKS
WEST MEMPHIS   MOSUNNY   31  18  58 NE13      30.14R WCI  21
$$

ARZ050-053-066-070-073-111500-
SOUTHWEST ARKANSAS

CITY           SKY/WX    TMP DP  RH WIND       PRES   REMARKS
ARKADELPHIA    FAIR      33  32  96 NE6       30.09R WCI  27
CAMDEN         SUNNY     36  30  80 CALM      30.07R
TEXARKANA      SUNNY     49  36  61 CALM      30.06R
EL DORADO      SUNNY     53  39  59 SW7       30.07R
DE QUEEN       CLEAR     32  31  96 CALM      30.06R FOG
$$

ARZ056-057-069-111500-
SOUTHEAST ARKANSAS

CITY           SKY/WX    TMP DP  RH WIND       PRES   REMARKS
PINE BLUFF     MOSUNNY   36  32  85 N8        30.09R
STUTTGART      MOSUNNY   34  27  75 N13       30.11R WCI  25
MONTICELLO     SUNNY     43  36  76 CALM      30.07R

$$






USA.gov is the U.S. government's official web portal to all federal, state and local government web resources and services.